Weather History for Grand Marais, MN

Change the Weather History Date:

Tuesday, April 29, 2014

  Actual Average (KCKC) Record (KCKC)
Temperature  
Mean Temperature 42 °F -  
Max Temperature 48 °F 50 °F 105 °F (1997)
Min Temperature 37 °F 31 °F 19 °F (2012)
Degree Days  
Heating Degree Days 22    
Moisture  
Dew Point 28 °F    
Average Humidity 62    
Maximum Humidity 86    
Minimum Humidity 35    
Precipitation  
Precipitation 0.27 in - - ()
Sea Level Pressure  
Sea Level Pressure 29.91 in    
Wind  
Wind Speed 16 mph (NE)    
Max Wind Speed 22 mph    
Max Gust Speed 34 mph    
Averages and records for this station are not official NWS values.
T = Trace of Precipitation, MM = Missing Value Source: NWS Daily Summary

Daily Weather History Graph

Daily Weather History Graph

Search for Another Location

Airport:

Trip Planner

Search our weather history database for the weather conditions in past years. The results will help you decide how hot, cold, wet, or windy it might be!

Date:

Astronomy

Apr. 29, 2014 Rise Set
Actual Time 5:47 AM CDT 8:11 PM CDT
Civil Twilight 5:12 AM CDT 8:45 PM CDT
Nautical Twilight 4:30 AM CDT 9:28 PM CDT
Astronomical Twilight 3:41 AM CDT 10:18 PM CDT
Moon 6:06 AM CDT (4/29) 8:52 PM CDT (4/29)
Length of Visible Light 15h 32m
Length of Day
14h 23m
New Moon, 0% of the Moon is Illuminated
Apr 29
New Moon
May 6
First Quarter
May 14
Full
May 21
Last Quarter
May 28
New

Hourly Weather History & Observations

Time (CDT) Temp. Windchill Dew Point Humidity Pressure Visibility Wind Dir Wind Speed Gust Speed Precip Events Conditions
12:56 AM 43.0 °F 34.5 °F 18.0 °F 37% 30.04 in - ENE 19.6 mph 33.4 mph N/A   Unknown
1:56 AM 43.0 °F 34.0 °F 17.1 °F 35% 30.02 in - NE 21.9 mph 34.5 mph N/A   Unknown
2:56 AM 42.1 °F 33.3 °F 18.0 °F 38% 30.00 in - NE 19.6 mph 28.8 mph N/A   Unknown
3:56 AM 41.0 °F 31.6 °F 19.9 °F 43% 30.00 in - NE 20.7 mph 32.2 mph N/A   Unknown
4:56 AM 39.9 °F 31.4 °F 21.0 °F 47% 29.99 in - NE 16.1 mph 33.4 mph N/A   Unknown
5:56 AM 39.9 °F 31.8 °F 21.9 °F 49% 29.96 in - NE 15.0 mph 26.5 mph N/A   Unknown
6:56 AM 39.9 °F 32.9 °F 23.0 °F 51% 29.96 in - NE 11.5 mph 24.2 mph N/A   Unknown
7:56 AM 39.9 °F 31.8 °F 23.0 °F 51% 29.93 in - NNE 15.0 mph 24.2 mph N/A   Unknown
8:56 AM 42.1 °F 35.2 °F 24.1 °F 49% 29.92 in - NE 12.7 mph 25.3 mph N/A   Unknown
9:56 AM 45.0 °F 37.4 °F 25.0 °F 46% 29.92 in - NE 18.4 mph 31.1 mph N/A   Unknown
10:56 AM 48.9 °F - 27.0 °F 43% 29.89 in - NE 20.7 mph 34.5 mph N/A   Unknown
11:56 AM 48.0 °F - 27.0 °F 44% 29.87 in - NE 15.0 mph 27.6 mph N/A   Unknown
12:56 PM 48.0 °F - 28.0 °F 46% 29.85 in - NE 16.1 mph 24.2 mph N/A   Unknown
1:56 PM 43.0 °F 36.0 °F 35.1 °F 74% 29.87 in - NE 13.8 mph 28.8 mph 0.01 in   Unknown
2:56 PM 41.0 °F 35.8 °F 37.0 °F 86% 29.89 in - NE 8.1 mph - 0.07 in   Unknown
3:56 PM 39.9 °F 32.5 °F 36.0 °F 86% 29.90 in - ENE 12.7 mph - 0.02 in   Unknown
4:56 PM 39.0 °F 32.3 °F 35.1 °F 86% 29.90 in - NE 10.4 mph - 0.05 in   Unknown
5:56 PM 37.9 °F 31.5 °F 34.0 °F 86% 29.89 in - North 9.2 mph 18.4 mph 0.06 in   Unknown
6:56 PM 37.9 °F 30.5 °F 34.0 °F 86% 29.89 in - NNE 11.5 mph 23.0 mph 0.05 in   Unknown
7:56 PM 39.0 °F 31.0 °F 34.0 °F 82% 29.88 in - NE 13.8 mph 24.2 mph 0.01 in   Unknown
8:56 PM 37.9 °F 30.5 °F 34.0 °F 86% 29.87 in - North 11.5 mph 21.9 mph N/A   Unknown
9:56 PM 39.0 °F 30.6 °F 34.0 °F 82% 29.85 in - NNE 15.0 mph 24.2 mph N/A   Unknown
10:56 PM 39.0 °F 31.8 °F 34.0 °F 82% 29.83 in - North 11.5 mph 23.0 mph N/A   Unknown
11:56 PM 39.0 °F 32.8 °F 34.0 °F 82% 29.81 in - North 9.2 mph 18.4 mph N/A   Unknown